Radiation Dose at Monitoring Post of Fukushima Daini Nuclear Power Station
Date,Time,MP-1(microSv/h),MP-2(microSv/h),MP-3(microSv/h),MP-4(microSv/h),MP-5(microSv/h),MP-6(microSv/h),MP-7(microSv/h),Wind Direction,Wind Velocity(m/s),Rain
2024/01/15,00:00,0.150,0.135,0.212,0.203,0.207,0.121,0.078,west-southwest,5.8,No
2024/01/15,00:10,0.149,0.135,0.212,0.201,0.207,0.120,0.078,west-southwest,4.9,No
2024/01/15,00:20,0.150,0.136,0.212,0.201,0.209,0.122,0.078,southwest,5.0,No
2024/01/15,00:30,0.149,0.136,0.211,0.202,0.208,0.122,0.078,west-southwest,6.5,No
2024/01/15,00:40,0.150,0.136,0.211,0.201,0.208,0.121,0.078,west-southwest,6.7,No
2024/01/15,00:50,0.150,0.135,0.212,0.201,0.208,0.121,0.078,west-southwest,7.9,No
2024/01/15,01:00,0.150,0.135,0.211,0.201,0.209,0.121,0.078,west-southwest,6.0,No
2024/01/15,01:10,0.150,0.135,0.211,0.202,0.209,0.121,0.078,west-southwest,6.2,No
2024/01/15,01:20,0.149,0.135,0.210,0.201,0.208,0.121,0.077,west-southwest,5.2,No
2024/01/15,01:30,0.150,0.136,0.212,0.201,0.207,0.121,0.077,west-southwest,3.6,No
2024/01/15,01:40,0.149,0.135,0.212,0.202,0.208,0.120,0.077,west-southwest,2.0,No
2024/01/15,01:50,0.150,0.135,0.212,0.201,0.209,0.121,0.078,west,2.3,No
2024/01/15,02:00,0.150,0.135,0.212,0.202,0.208,0.121,0.079,west-southwest,4.8,No
2024/01/15,02:10,0.150,0.136,0.212,0.202,0.209,0.121,0.078,west,4.9,No
2024/01/15,02:20,0.151,0.135,0.211,0.202,0.208,0.121,0.079,west,5.4,No
2024/01/15,02:30,0.149,0.135,0.212,0.201,0.208,0.121,0.078,west,6.0,No
2024/01/15,02:40,0.149,0.136,0.212,0.202,0.207,0.121,0.078,west,7.4,No
2024/01/15,02:50,0.150,0.136,0.213,0.202,0.207,0.121,0.078,west,8.1,No
2024/01/15,03:00,0.149,0.136,0.212,0.201,0.209,0.121,0.078,west,6.3,No
2024/01/15,03:10,0.149,0.136,0.212,0.201,0.208,0.121,0.078,west,5.5,No
2024/01/15,03:20,0.149,0.136,0.211,0.203,0.208,0.121,0.077,west,3.9,No
2024/01/15,03:30,0.150,0.136,0.212,0.202,0.209,0.121,0.077,west-northwest,2.3,No
2024/01/15,03:40,0.150,0.136,0.210,0.202,0.208,0.121,0.078,west,2.0,No
2024/01/15,03:50,0.150,0.136,0.211,0.201,0.207,0.121,0.078,-,CALM,No
2024/01/15,04:00,0.149,0.136,0.213,0.201,0.207,0.120,0.078,southwest,0.9,No
2024/01/15,04:10,0.150,0.136,0.211,0.202,0.208,0.121,0.078,north-northwest,1.0,No
2024/01/15,04:20,0.150,0.135,0.211,0.201,0.208,0.121,0.078,north-northeast,1.4,No
2024/01/15,04:30,0.150,0.136,0.212,0.202,0.207,0.121,0.078,-,CALM,No
2024/01/15,04:40,0.150,0.136,0.211,0.201,0.209,0.121,0.078,north-northwest,2.4,No
2024/01/15,04:50,0.150,0.136,0.211,0.202,0.208,0.121,0.078,north-northwest,2.6,No
2024/01/15,05:00,0.149,0.136,0.211,0.201,0.206,0.121,0.078,north-northwest,3.7,No
2024/01/15,05:10,0.150,0.135,0.211,0.202,0.208,0.121,0.077,north-northwest,4.1,No
2024/01/15,05:20,0.148,0.135,0.210,0.201,0.208,0.121,0.078,north-northwest,4.2,No
2024/01/15,05:30,0.149,0.136,0.210,0.202,0.208,0.121,0.078,north-northwest,4.9,No
2024/01/15,05:40,0.149,0.136,0.212,0.202,0.207,0.120,0.078,north-northwest,4.5,No
2024/01/15,05:50,0.150,0.134,0.211,0.201,0.208,0.121,0.078,north-northwest,5.6,No
2024/01/15,06:00,0.150,0.135,0.212,0.201,0.208,0.122,0.078,north-northwest,5.5,No
2024/01/15,06:10,0.150,0.135,0.211,0.201,0.207,0.121,0.078,north-northwest,5.7,No
2024/01/15,06:20,0.149,0.137,0.211,0.202,0.209,0.122,0.078,north-northwest,5.5,No
2024/01/15,06:30,0.150,0.136,0.212,0.201,0.207,0.120,0.077,north-northwest,4.4,No
2024/01/15,06:40,0.150,0.135,0.212,0.202,0.209,0.121,0.078,north-northwest,4.5,No
2024/01/15,06:50,0.149,0.136,0.211,0.202,0.208,0.121,0.078,north,5.4,No
2024/01/15,07:00,0.151,0.136,0.213,0.202,0.209,0.121,0.078,north,5.1,No
2024/01/15,07:10,0.150,0.136,0.211,0.202,0.210,0.121,0.078,north,4.6,No
2024/01/15,07:20,0.150,0.136,0.211,0.203,0.209,0.121,0.077,north,5.0,No
2024/01/15,07:30,0.150,0.136,0.212,0.202,0.208,0.121,0.078,north,4.5,No
2024/01/15,07:40,0.150,0.136,0.212,0.203,0.208,0.121,0.078,north,4.3,No
2024/01/15,07:50,0.150,0.137,0.211,0.202,0.209,0.121,0.078,north-northwest,4.0,No
2024/01/15,08:00,0.151,0.135,0.213,0.202,0.209,0.121,0.078,north-northwest,4.7,No
2024/01/15,08:10,0.150,0.137,0.211,0.202,0.207,0.121,0.079,northwest,4.5,No
2024/01/15,08:20,0.151,0.136,0.212,0.201,0.209,0.121,0.079,west-northwest,3.4,No
2024/01/15,08:30,0.151,0.136,0.212,0.201,0.209,0.121,0.078,west-northwest,3.3,No
2024/01/15,08:40,0.149,0.135,0.212,0.201,0.208,0.121,0.077,west-northwest,6.3,No
2024/01/15,08:50,0.150,0.136,0.212,0.203,0.208,0.121,0.077,northwest,7.9,No
2024/01/15,09:00,0.150,0.136,0.211,0.201,0.209,0.122,0.078,west-northwest,12.3,No
2024/01/15,09:10,0.150,0.135,0.212,0.202,0.210,0.121,0.077,west,13.6,No
2024/01/15,09:20,0.150,0.135,0.212,0.202,0.208,0.122,0.078,west-northwest,12.8,No
2024/01/15,09:30,0.151,0.136,0.213,0.201,0.208,0.121,0.078,west,13.3,No
2024/01/15,09:40,0.151,0.135,0.212,0.202,0.209,0.121,0.078,west,16.9,No
2024/01/15,09:50,0.151,0.136,0.210,0.202,0.210,0.121,0.078,west-northwest,15.1,No
2024/01/15,10:00,0.150,0.136,0.213,0.202,0.208,0.121,0.078,west-northwest,14.8,No
2024/01/15,10:10,0.150,0.136,0.212,0.202,0.209,0.121,0.078,west-northwest,8.1,No
2024/01/15,10:20,0.150,0.136,0.212,0.201,0.209,0.122,0.078,west-northwest,9.2,No
2024/01/15,10:30,0.150,0.135,0.212,0.201,0.209,0.122,0.078,west,6.8,No
2024/01/15,10:40,0.149,0.135,0.211,0.202,0.208,0.121,0.078,west,4.3,No
2024/01/15,10:50,0.150,0.136,0.212,0.202,0.209,0.121,0.077,north-northeast,0.6,No
2024/01/15,11:00,0.149,0.135,0.211,0.202,0.208,0.121,0.078,west,7.6,No
2024/01/15,11:10,0.150,0.135,0.210,0.202,0.208,0.122,0.078,west-northwest,7.7,No
2024/01/15,11:20,0.150,0.136,0.211,0.201,0.208,0.121,0.078,west,5.1,No
2024/01/15,11:30,0.150,0.136,0.210,0.202,0.209,0.121,0.077,west,2.7,No
2024/01/15,11:40,0.149,0.135,0.210,0.201,0.208,0.121,0.077,west-northwest,7.3,No
2024/01/15,11:50,0.150,0.135,0.211,0.202,0.209,0.122,0.078,northwest,4.6,No
2024/01/15,12:00,0.148,0.135,0.212,0.202,0.209,0.120,0.078,west-northwest,6.5,No
2024/01/15,12:10,0.148,0.135,0.211,0.201,0.207,0.122,0.078,west-northwest,7.5,No
2024/01/15,12:20,0.149,0.135,0.211,0.201,0.209,0.121,0.078,west-northwest,9.8,No
2024/01/15,12:30,0.150,0.135,0.212,0.200,0.207,0.121,0.078,west-northwest,10.1,No
2024/01/15,12:40,0.149,0.136,0.212,0.201,0.208,0.121,0.077,west-northwest,10.9,No
2024/01/15,12:50,0.150,0.135,0.211,0.202,0.210,0.121,0.078,west-northwest,15.1,No
2024/01/15,13:00,0.150,0.134,0.211,0.201,0.208,0.120,0.077,west-northwest,11.7,No
2024/01/15,13:10,0.148,0.135,0.212,0.201,0.209,0.121,0.078,west-northwest,7.9,No
2024/01/15,13:20,0.149,0.136,0.213,0.202,0.209,0.120,0.077,west-northwest,8.6,No
2024/01/15,13:30,0.148,0.135,0.212,0.201,0.208,0.122,0.077,west,12.2,No
2024/01/15,13:40,0.149,0.135,0.213,0.201,0.209,0.121,0.078,west-northwest,9.2,No
2024/01/15,13:50,0.149,0.136,0.212,0.202,0.209,0.121,0.078,west-northwest,9.2,No
2024/01/15,14:00,0.150,0.136,0.212,0.202,0.209,0.121,0.077,west,10.6,No
2024/01/15,14:10,0.150,0.135,0.212,0.202,0.208,0.122,0.077,west-northwest,6.0,No
2024/01/15,14:20,0.149,0.135,0.213,0.201,0.209,0.121,0.078,west-northwest,6.4,No
2024/01/15,14:30,0.150,0.136,0.213,0.201,0.209,0.121,0.078,west-northwest,5.8,No
2024/01/15,14:40,0.151,0.135,0.212,0.201,0.209,0.120,0.077,west-northwest,4.8,No
2024/01/15,14:50,0.150,0.135,0.213,0.201,0.209,0.120,0.077,west-northwest,7.6,No
2024/01/15,15:00,0.149,0.135,0.213,0.201,0.209,0.121,0.077,west-northwest,7.3,No
2024/01/15,15:10,0.150,0.135,0.212,0.202,0.207,0.121,0.078,north-northwest,4.0,No
2024/01/15,15:20,0.150,0.135,0.212,0.201,0.209,0.120,0.077,west,5.4,No
2024/01/15,15:30,0.149,0.136,0.213,0.202,0.208,0.121,0.078,northwest,4.3,No
2024/01/15,15:40,0.151,0.136,0.212,0.202,0.209,0.122,0.077,west-northwest,7.5,No
2024/01/15,15:50,0.150,0.135,0.212,0.202,0.209,0.121,0.077,west-northwest,5.9,No
2024/01/15,16:00,0.149,0.136,0.212,0.202,0.208,0.121,0.078,west-southwest,1.9,No
2024/01/15,16:10,0.151,0.136,0.212,0.202,0.208,0.121,0.077,west,5.1,No
2024/01/15,16:20,0.149,0.136,0.213,0.201,0.208,0.121,0.078,northwest,4.4,No
2024/01/15,16:30,0.150,0.136,0.212,0.201,0.208,0.121,0.078,west-northwest,4.2,No
2024/01/15,16:40,0.149,0.135,0.212,0.202,0.208,0.121,0.077,west-northwest,5.1,No
2024/01/15,16:50,0.150,0.136,0.212,0.202,0.208,0.121,0.078,northwest,3.6,No
2024/01/15,17:00,0.151,0.136,0.211,0.202,0.209,0.120,0.077,west-northwest,7.6,No
2024/01/15,17:10,0.150,0.135,0.212,0.201,0.208,0.121,0.078,west-northwest,6.6,No
2024/01/15,17:20,0.149,0.135,0.212,0.202,0.208,0.120,0.077,west,2.9,No
2024/01/15,17:30,0.149,0.135,0.213,0.202,0.208,0.121,0.077,west-northwest,2.8,No
2024/01/15,17:40,0.149,0.135,0.213,0.203,0.208,0.121,0.077,west-northwest,4.2,No
2024/01/15,17:50,0.149,0.135,0.213,0.202,0.208,0.121,0.078,northwest,2.6,No
2024/01/15,18:00,0.150,0.136,0.211,0.201,0.209,0.120,0.078,northwest,1.3,No
2024/01/15,18:10,0.150,0.136,0.212,0.202,0.208,0.120,0.076,north-northwest,1.1,No
2024/01/15,18:20,0.151,0.135,0.211,0.202,0.208,0.121,0.078,-,CALM,No
2024/01/15,18:30,0.150,0.135,0.212,0.201,0.209,0.121,0.077,-,CALM,No
2024/01/15,18:40,0.150,0.134,0.213,0.203,0.208,0.120,0.077,north,2.8,No
2024/01/15,18:50,0.150,0.135,0.213,0.201,0.209,0.121,0.078,north,4.5,No
2024/01/15,19:00,0.150,0.136,0.212,0.202,0.208,0.121,0.077,north,4.7,No
2024/01/15,19:10,0.150,0.135,0.212,0.202,0.208,0.121,0.078,north-northwest,3.8,No
2024/01/15,19:20,0.149,0.136,0.212,0.202,0.207,0.121,0.078,north-northwest,3.4,No
2024/01/15,19:30,0.150,0.135,0.212,0.202,0.209,0.120,0.078,north-northwest,3.1,No
2024/01/15,19:40,0.150,0.134,0.212,0.201,0.208,0.121,0.078,north,1.9,No
2024/01/15,19:50,0.149,0.136,0.211,0.201,0.207,0.122,0.078,northwest,1.3,No
2024/01/15,20:00,0.151,0.136,0.211,0.201,0.209,0.121,0.077,north,1.2,No
2024/01/15,20:10,0.151,0.135,0.211,0.201,0.209,0.121,0.079,northwest,1.1,No
2024/01/15,20:20,0.149,0.136,0.212,0.203,0.208,0.122,0.077,north-northwest,1.6,No
2024/01/15,20:30,0.150,0.135,0.213,0.201,0.208,0.121,0.078,northwest,1.4,No
2024/01/15,20:40,0.150,0.136,0.212,0.202,0.209,0.121,0.078,northwest,2.4,No
2024/01/15,20:50,0.149,0.136,0.211,0.202,0.207,0.121,0.078,northwest,2.6,No
2024/01/15,21:00,0.150,0.135,0.212,0.201,0.208,0.121,0.077,north-northwest,2.5,No
2024/01/15,21:10,0.149,0.135,0.212,0.203,0.208,0.121,0.077,northwest,1.7,No
2024/01/15,21:20,0.149,0.135,0.212,0.201,0.208,0.120,0.078,north-northwest,1.8,No
2024/01/15,21:30,0.150,0.136,0.213,0.202,0.208,0.122,0.078,north-northwest,1.8,No
2024/01/15,21:40,0.151,0.135,0.212,0.202,0.208,0.121,0.078,north-northwest,1.7,No
2024/01/15,21:50,0.149,0.136,0.212,0.203,0.208,0.121,0.078,north-northwest,1.2,No
2024/01/15,22:00,0.150,0.136,0.213,0.203,0.207,0.121,0.077,north-northwest,2.1,No
2024/01/15,22:10,0.151,0.136,0.213,0.202,0.208,0.121,0.078,north-northwest,2.2,No
2024/01/15,22:20,0.151,0.135,0.212,0.201,0.208,0.121,0.078,north,3.0,No
2024/01/15,22:30,0.150,0.135,0.212,0.201,0.208,0.121,0.078,north-northwest,3.6,No
2024/01/15,22:40,0.150,0.135,0.212,0.201,0.208,0.121,0.078,north-northwest,4.6,Yes
2024/01/15,22:50,0.151,0.136,0.212,0.203,0.208,0.121,0.078,north-northwest,2.0,No
2024/01/15,23:00,0.150,0.137,0.212,0.203,0.208,0.121,0.078,northwest,3.2,No
2024/01/15,23:10,0.150,0.136,0.212,0.201,0.208,0.121,0.078,northwest,3.2,No
2024/01/15,23:20,0.149,0.136,0.213,0.202,0.208,0.121,0.078,north-northwest,3.5,No
2024/01/15,23:30,0.149,0.135,0.212,0.202,0.208,0.121,0.077,northwest,1.9,No
2024/01/15,23:40,0.151,0.135,0.211,0.201,0.208,0.121,0.078,northwest,2.0,No
2024/01/15,23:50,0.151,0.135,0.212,0.201,0.209,0.121,0.077,north-northwest,2.2,No
